London,

1:00 PM EDT on April 25, 2017 (GMT -0400)
London

Weather History for CYXU - November, 2012

Change the Weather History Date:

Tuesday, November 20, 2012

  Actual Average Record
Temperature  
Mean Temperature 42 °F -  
Max Temperature 51 °F 36 °F 57 °F (2011)
Min Temperature 32 °F 23 °F 14 °F (2014)
Degree Days  
Heating Degree Days 24    
Moisture  
Dew Point 36 °F    
Average Humidity 89    
Maximum Humidity 100    
Minimum Humidity 58    
Precipitation  
Precipitation 0.00 in 0.12 in - ()
Sea Level Pressure  
Sea Level Pressure 30.18 in    
Wind  
Wind Speed 5 mph ()    
Max Wind Speed 8 mph    
Max Gust Speed -    
Visibility 3.7 miles    
Events Fog    
Averages and records for this station are not official NWS values.
T = Trace of Precipitation, MM = Missing Value Source: Averaged Metar Reports

Daily Weather History Graph

Daily Weather History Graph

Search for Another Location

Airport or City:

Trip Planner

Search our weather history database for the weather conditions in past years. The results will help you decide how hot, cold, wet, or windy it might be!

Date:

Astronomy

Nov. 20, 2012 Rise Set
Actual Time 7:23 AM EST 4:56 PM EST
Civil Twilight 6:52 AM EST 5:27 PM EST
Nautical Twilight 6:18 AM EST 6:02 PM EST
Astronomical Twilight 5:44 AM EST 6:35 PM EST
Moon 12:52 PM EST (11/20) No Moon Set
Length of Visible Light 10h 34m
Length of Day
9h 32m
Waxing Crescent, 51% of the Moon is Illuminated
Nov 20
Waxing Crescent
Nov 28
Full
Dec 6
Last Quarter
Dec 13
New
Dec 20
First Quarter

Hourly Weather History & Observations

Time (EST) Temp. Windchill Dew Point Humidity Pressure Visibility Wind Dir Wind Speed Gust Speed Precip Events Conditions
12:00 AM 35.6 °F 29.9 °F 33.8 °F 93% 30.24 in 6.0 mi ENE 6.9 mph - N/A   Mostly Cloudy
1:00 AM 36 °F - 33 °F 86% 30.23 in 6 mi East 5.8 mph - -  
1:00 AM 35.6 °F 29.9 °F 33.8 °F 93% 30.22 in 6.0 mi ENE 6.9 mph - N/A   Mostly Cloudy
1:43 AM 35.6 °F 31.7 °F 33.8 °F 93% 30.21 in 4.0 mi East 4.6 mph - N/A   Mostly Cloudy
2:00 AM 35.6 °F 32.8 °F 33.8 °F 93% 30.22 in 4.0 mi ESE 3.5 mph - N/A   Overcast
2:26 AM 33.8 °F 28.6 °F 32.0 °F 93% 30.21 in 3.0 mi East 5.8 mph - N/A   Overcast
2:42 AM 33.8 °F 28.6 °F 33.8 °F 100% 30.21 in 2.5 mi East 5.8 mph - N/A   Overcast
3:00 AM 35.6 °F 30.7 °F 33.8 °F 93% 30.20 in 2.5 mi East 5.8 mph - N/A   Overcast
4:00 AM 33.8 °F 30.8 °F 32.0 °F 93% 30.19 in 1.5 mi ENE 3.5 mph - N/A   Overcast
4:09 AM 32.0 °F - 32.0 °F 100% 30.20 in 1.0 mi Calm Calm - N/A   Overcast
4:22 AM 33.8 °F - 32.0 °F 93% 30.20 in 0.2 mi Calm Calm - N/A Fog Fog
4:27 AM 32.0 °F - 32.0 °F 100% 30.20 in 0.1 mi NNE 2.3 mph - N/A Fog Fog
5:00 AM 33.8 °F 28.6 °F 32.0 °F 93% 30.19 in 0.1 mi East 5.8 mph - N/A Fog Fog
6:00 AM 33.8 °F 29.6 °F 33.8 °F 100% 30.19 in 0.1 mi East 4.6 mph - N/A Fog Fog
7:00 AM 34 °F - 34 °F 100% 30.20 in 0 mi East 3.5 mph - -  
7:00 AM 33.8 °F 30.8 °F 33.8 °F 100% 30.20 in 0.1 mi East 3.5 mph - N/A Fog Fog
8:00 AM 33.8 °F 29.6 °F 33.8 °F 100% 30.20 in 0.2 mi ESE 4.6 mph - N/A Fog Fog
8:20 AM 35.6 °F - 35.6 °F 100% 30.19 in 0.5 mi Calm Calm - N/A Fog Fog
8:41 AM 37.4 °F 32.8 °F 37.4 °F 100% 30.19 in 1.0 mi East 5.8 mph - N/A   Overcast
9:00 AM 41.0 °F 36.4 °F 41.0 °F 100% 30.19 in 1.5 mi ESE 6.9 mph - N/A   Overcast
9:11 AM 41.0 °F 36.4 °F 41.0 °F 100% 30.19 in 2.0 mi SE 6.9 mph - N/A   Overcast
10:00 AM 42.8 °F 39.3 °F 41.0 °F 93% 30.19 in 3.0 mi East 5.8 mph - N/A   Overcast
11:00 AM 44.6 °F 40.2 °F 41.0 °F 87% 30.18 in 3.0 mi ESE 8.1 mph - N/A   Overcast
12:00 PM 48.2 °F - 41.0 °F 76% 30.16 in 3.0 mi SSE 4.6 mph - N/A   Overcast
1:00 PM 51 °F - 41 °F 59% 30.14 in 6 mi SSE 6.9 mph - -   Overcast
1:00 PM 51.8 °F - 41.0 °F 67% 30.13 in 6.0 mi SSE 5.8 mph - N/A   Overcast
2:00 PM 51.8 °F - 41.0 °F 67% 30.13 in 8.0 mi SSW 5.8 mph - N/A   Overcast
3:00 PM 51.8 °F - 37.4 °F 58% 30.13 in 10.0 mi SSW 4.6 mph - N/A   Mostly Cloudy
4:00 PM 51.8 °F - 41.0 °F 67% 30.14 in 8.0 mi North 4.6 mph - N/A   Mostly Cloudy
5:00 PM 48.2 °F - 41.0 °F 76% 30.15 in 7.0 mi NE 3.5 mph - N/A   Overcast
6:00 PM 46.4 °F - 41.0 °F 81% 30.16 in 8.0 mi Calm Calm - N/A   Overcast
7:00 PM 44 °F - 38 °F 73% 30.17 in 7 mi ESE 8.1 mph - -  
7:00 PM 44.6 °F 40.2 °F 37.4 °F 76% 30.17 in 8.0 mi ESE 8.1 mph - N/A   Mostly Cloudy
8:00 PM 41.0 °F 38.0 °F 37.4 °F 87% 30.17 in 6.0 mi SE 4.6 mph - N/A   Scattered Clouds
9:00 PM 41.0 °F 36.4 °F 39.2 °F 93% 30.17 in 5.0 mi East 6.9 mph - N/A   Mostly Cloudy
10:00 PM 37.4 °F 33.8 °F 35.6 °F 93% 30.18 in 4.0 mi East 4.6 mph - N/A   Mostly Cloudy
11:00 PM 39.2 °F 35.9 °F 37.4 °F 93% 30.18 in 4.0 mi East 4.6 mph - N/A   Scattered Clouds
11:52 PM 35.6 °F 31.7 °F 35.6 °F 100% 30.19 in 2.5 mi ENE 4.6 mph - N/A   Mostly Cloudy